Regional Weather Roundup
Issued by NWS

Home | Current Version | Previous Version | Text Only | Print | Product List | Glossary On
Versions: 1 2 3 4 5 6 7 8 9 10 11 12 13 14 15 16 17 18 19 20 21 22 23 24 25 26 27 28 29 30 31 32 33 34 35 36 37 38 39 40 41 42 43 44 45 46 47 48 49 50
000
ASUS43 KDMX 021007
RWRIA

WEATHER ROUNDUP FOR IOWA
NATIONAL WEATHER SERVICE DES MOINES IA
500 AM CDT TUE JUN 02 2015

NOTE: "FAIR" INDICATES FEW OR NO CLOUDS BELOW 12,000 FEET WITH NO
SIGNIFICANT WEATHER AND/OR OBSTRUCTIONS TO VISIBILITY.

* - THESE STATIONS ARE NOT NWS STATIONS...THUS NOT UNDER NWS
QUALITY CONTROL.  THEY ALSO DO NOT REPORT WEATHER SUCH
AS PRECIPITATION OR FOG.

IAZ001>003-012>014-020>022-031>034-043>046-021100-
   NORTHWEST IOWA

CITY           SKY/WX    TMP DP  RH WIND       PRES   REMARKS
CARROLL *      CLEAR     54  54 100 S7        30.08S
CHEROKEE *     CLOUDY    55  54  94 S8        30.05R
DENISON *      CLEAR     55  55 100 S8        30.06R
LE MARS *        N/A     57  52  82 S12       30.04R
ORANGE CITY *  CLEAR     55  50  82 S8        30.04R
SHELDON *      CLEAR     55  55 100 S14       30.02R
SIOUX CITY     CLOUDY    58  52  80 SE8       30.04R
SPENCER        MOCLDY    56  52  86 S12       30.05F
$$

IAZ055>058-069>071-079>083-090>094-021100-
   SOUTHWEST IOWA

CITY           SKY/WX    TMP DP  RH WIND       PRES   REMARKS
ATLANTIC *     PTCLDY    55  54  94 SE7       30.09R
AUDUBON *      CLEAR     54  50  87 S5        30.10S
CLARINDA *     CLOUDY    57  55  94 SE5       30.10S
COUNCIL BLFS * CLEAR     55  55 100 SE9       30.07S
CRESTON *      MOCLDY    54  54 100 S6        30.10S
HARLAN  *      CLEAR     55  55 100 S6        30.12R
LAMONI         CLOUDY    60  53  77 S12       30.10F
RED OAK *      CLOUDY    55  55 100 SE6       30.09R
SHENANDOAH *   CLOUDY    59  55  88 S3        30.08S
$$

IAZ047>049-059>061-072>074-084-021100-
   CENTRAL IOWA

CITY           SKY/WX    TMP DP  RH WIND       PRES   REMARKS
AMES           MOCLDY    51  50  96 SE7       30.10S
ANKENY *       CLEAR     52  52 100 CALM      30.11R
CHARITON *     CLEAR     52  52 100 CALM      30.12R
DES MOINES     PTCLDY    57  51  80 SE7       30.11R
GRINNELL*      PTCLDY    52  50  93 E5        30.12F
KNOXVILLE *    CLEAR     52  50  93 CALM      30.11S
MARSHALLTOWN   PTCLDY    50  49  96 SE7       30.10F
PELLA *        MOCLDY    52  52 100 SE3       30.13F FOG
PERRY *          N/A     54  52  94 SE7       30.10R
$$

IAZ004>006-015-016-023>025-035-036-021100-
   NORTH CENTRAL IOWA

CITY           SKY/WX    TMP DP  RH WIND       PRES   REMARKS
ALGONA *       CLEAR     55  54  94 S9        30.08F
CLARION *      CLEAR     55  52  88 S10       30.10S
ESTHERVILLE    PTCLDY    55  52  89 S13       30.05S
FORT DODGE *   MOCLDY    55  50  82 S6        30.10S
MASON CITY     PTCLDY    50  44  80 SE6       30.12S
FOREST CITY *  CLEAR     50  48  93 SE7       30.09F
IOWA FALLS *     N/A     52  50  93 SE6       30.12S
$$

IAZ007>011-017>019-026>030-037>042-050>054-066-021100-
   NORTHEAST IOWA

CITY           SKY/WX    TMP DP  RH WIND       PRES   REMARKS
CEDAR RAPIDS   CLOUDY    53  48  83 E5        30.14F
CHARLES CITY * CLEAR     52  46  82 SE10      30.13S
CLINTON *      CLOUDY    50  43  76 E7        30.21R
DECORAH *      CLOUDY    50  41  71 SE9       30.14S
DUBUQUE        CLEAR     47  41  80 SE7       30.18S
MONTICELLO *   PTCLDY    50  46  87 CALM      30.16F
OELWEIN *      MOCLDY    52  45  76 SE10      30.15F
WATERLOO       PTCLDY    54  45  71 SE8       30.12F
$$

IAZ064-065-067-068-078-021100-
   EAST CENTRAL IOWA

CITY           SKY/WX    TMP DP  RH WIND       PRES   REMARKS
DAVENPORT      CLOUDY    51  46  83 SE6       30.18S
IOWA CITY      CLOUDY    56  51  84 CALM      30.16F
MT. PLEASANT * CLOUDY    54  54 100 SE5       30.15F FOG
MUSCATINE *    CLOUDY    57  54  88 SE6       30.17S
QUAD CITIES    PTCLDY    50  46  86 CALM      30.18R
$$

IAZ062-063-075>077-085>089-095>099-021100-
   SOUTHEAST IOWA

CITY           SKY/WX    TMP DP  RH WIND       PRES   REMARKS
BURLINGTON     PTCLDY    54  53  97 E7        30.15S
FAIRFIELD *    FOG       52  50  93 SE5       30.14F VSB 1
FORT MADISON *   N/A     52  52 100 CALM      30.16F FOG
KEOKUK *       PTCLDY    52  52 100 SE5       30.15S
OSKALOOSA *      N/A     52  52 100 SE5       30.13F FOG
CENTERVILLE *  FOG       48  48 100 SE6       30.13F VSB 3/4
OTTUMWA        CLEAR     51  51 100 SE5       30.13F
WASHINGTON *   MOCLDY    52  50  93 CALM      30.16F FOG
$$

ABBREVIATIONS USED IN REMARKS
   TC - TEMPERATURES IN CELSIUS
  WCI - WIND CHILL INDEX
   HX - HEAT INDEX
  VSB - VISIBILITY
$$




USA.gov is the U.S. government's official web portal to all federal, state and local government web resources and services.